Back to catalog

CZ-6A DEB

AlivePO
NORAD 60706·DEBRIS·🇨🇳 China

Launched Aug 6, 2024 from Taiyuan Satellite Launch Center

Loading…

Next Passes (next 24 hours)

TLE

FreshSource: Space-Track

Epoch: Sep 14, 2026, 11:15 UTC

1 60706U 24140DK  26257.46933306  .00000377  00000-0  81067-4 0  9999
2 60706  89.0117 261.3428 0113427 326.6276  32.7816 14.52606173110748

Track CZ-6A DEB in real time with AllMySat

Download on the App Store